Weather History for KORC - December, 2012

Change the Weather History Date:

Wednesday, December 12, 2012

  Actual Average Record
Temperature  
Mean Temperature 36 °F -  
Max Temperature 48 °F 32 °F 53 °F (1998)
Min Temperature 24 °F 18 °F -13 °F (2000)
Degree Days  
Heating Degree Days 29    
Moisture  
Dew Point 17 °F    
Average Humidity 50    
Maximum Humidity 74    
Minimum Humidity 25    
Precipitation  
Precipitation 0.00 in - - ()
Sea Level Pressure  
Sea Level Pressure 29.84 in    
Wind  
Wind Speed 14 mph (SSW)    
Max Wind Speed 26 mph    
Max Gust Speed 32 mph    
Visibility 10 miles    
Events      
Averages and records for this station are not official NWS values.
T = Trace of Precipitation, MM = Missing Value Source: NWS Daily Summary

Daily Weather History Graph

Daily Weather History Graph

Search for Another Location

Airport or City:

Trip Planner

Search our weather history database for the weather conditions in past years. The results will help you decide how hot, cold, wet, or windy it might be!

Date:

Astronomy

Dec. 12, 2012 Rise Set
Actual Time 7:46 AM CST 4:49 PM CST
Civil Twilight 7:14 AM CST 5:22 PM CST
Nautical Twilight 6:38 AM CST 5:57 PM CST
Astronomical Twilight 6:04 AM CST 6:32 PM CST
Moon 6:51 AM CST (12/12) 4:28 PM CST (12/12)
Length of Visible Light 10h 07m
Length of Day
9h 03m
Waning Crescent, 1% of the Moon is Illuminated
Dec 12
Waning Crescent
Dec 13
New
Dec 19
First Quarter
Dec 28
Full
Jan 4
Last Quarter

Hourly Weather History & Observations

Time (CST) Temp. Windchill Dew Point Humidity Pressure Visibility Wind Dir Wind Speed Gust Speed Precip Events Conditions
12:15 AM 24.8 °F 16.1 °F 17.6 °F 74% 29.89 in 10.0 mi South 8.1 mph - N/A   Clear
12:35 AM 24.8 °F 16.1 °F 17.6 °F 74% 29.88 in 10.0 mi South 8.1 mph - N/A   Clear
12:55 AM 24.8 °F 15.3 °F 17.6 °F 74% 29.88 in 10.0 mi South 9.2 mph - N/A   Clear
1:15 AM 24.8 °F 15.3 °F 17.6 °F 74% 29.87 in 10.0 mi South 9.2 mph - N/A   Clear
1:35 AM 26.6 °F 17.5 °F 17.6 °F 69% 29.87 in 10.0 mi South 9.2 mph - N/A   Clear
1:55 AM 26.6 °F 18.2 °F 17.6 °F 69% 29.87 in 10.0 mi South 8.1 mph - N/A   Clear
2:15 AM 26.6 °F 18.2 °F 17.6 °F 69% 29.86 in 10.0 mi South 8.1 mph - N/A   Clear
2:35 AM 26.6 °F 17.5 °F 17.6 °F 69% 29.86 in 10.0 mi South 9.2 mph - N/A   Clear
2:55 AM 26.6 °F 17.5 °F 17.6 °F 69% 29.86 in 10.0 mi South 9.2 mph - N/A   Clear
3:15 AM 26.6 °F 16.2 °F 17.6 °F 69% 29.85 in 10.0 mi South 11.5 mph - N/A   Clear
3:35 AM 26.6 °F 15.7 °F 17.6 °F 69% 29.85 in 10.0 mi South 12.7 mph - N/A   Clear
3:55 AM 26.6 °F 15.2 °F 17.6 °F 69% 29.84 in 10.0 mi South 13.8 mph - N/A   Clear
4:15 AM 26.6 °F 15.7 °F 17.6 °F 69% 29.84 in 10.0 mi South 12.7 mph - N/A   Clear
4:35 AM 26.6 °F 15.7 °F 17.6 °F 69% 29.83 in 10.0 mi South 12.7 mph - N/A   Clear
4:55 AM 26.6 °F 15.2 °F 17.6 °F 69% 29.82 in 10.0 mi South 13.8 mph - N/A   Clear
5:15 AM 26.6 °F 14.7 °F 17.6 °F 69% 29.82 in 10.0 mi South 15.0 mph - N/A   Clear
5:35 AM 26.6 °F 14.7 °F 17.6 °F 69% 29.82 in 10.0 mi South 15.0 mph - N/A   Clear
5:55 AM 28.4 °F 17.0 °F 17.6 °F 64% 29.82 in 10.0 mi South 15.0 mph - N/A   Clear
6:15 AM 28.4 °F 17.0 °F 17.6 °F 64% 29.82 in 10.0 mi South 15.0 mph 20.7 mph N/A   Clear
6:35 AM 28.4 °F 17.5 °F 17.6 °F 64% 29.82 in 10.0 mi South 13.8 mph 19.6 mph N/A   Clear
6:55 AM 28.4 °F 15.8 °F 17.6 °F 64% 29.82 in 10.0 mi South 18.4 mph 24.2 mph N/A   Clear
7:15 AM 28.4 °F 16.6 °F 17.6 °F 64% 29.83 in 10.0 mi South 16.1 mph 20.7 mph N/A   Clear
7:35 AM 28.4 °F 15.8 °F 17.6 °F 64% 29.82 in 10.0 mi SSW 18.4 mph 24.2 mph N/A   Clear
7:55 AM 28.4 °F 15.4 °F 17.6 °F 64% 29.82 in 10.0 mi South 19.6 mph 26.5 mph N/A   Clear
8:15 AM 28.4 °F 15.8 °F 17.6 °F 64% 29.83 in 10.0 mi SSW 18.4 mph 25.3 mph N/A   Clear
8:35 AM 28.4 °F 16.2 °F 17.6 °F 64% 29.84 in 10.0 mi SSW 17.3 mph 24.2 mph N/A   Clear
8:55 AM 30.2 °F 18.5 °F 17.6 °F 60% 29.84 in 10.0 mi SSW 17.3 mph - N/A   Clear
9:15 AM 32.0 °F 20.5 °F 19.4 °F 60% 29.84 in 10.0 mi SSW 18.4 mph - N/A   Clear
9:35 AM 33.8 °F 22.5 °F 17.6 °F 52% 29.85 in 10.0 mi SSW 19.6 mph 25.3 mph N/A   Clear
9:55 AM 33.8 °F 22.2 °F 17.6 °F 52% 29.85 in 10.0 mi SSW 20.7 mph 26.5 mph N/A   Clear
10:15 AM 35.6 °F 24.5 °F 19.4 °F 52% 29.85 in 10.0 mi SSW 20.7 mph 28.8 mph N/A   Clear
10:35 AM 35.6 °F 24.8 °F 19.4 °F 52% 29.85 in 10.0 mi SSW 19.6 mph 28.8 mph N/A   Clear
10:55 AM 37.4 °F 26.6 °F 19.4 °F 48% 29.85 in 10.0 mi SSW 21.9 mph - N/A   Clear
11:15 AM 39.2 °F 28.5 °F 19.4 °F 45% 29.84 in 10.0 mi SSW 24.2 mph - N/A   Clear
11:35 AM 41.0 °F 30.9 °F 19.4 °F 42% 29.83 in 10.0 mi South 24.2 mph - N/A   Clear
11:55 AM 42.8 °F 33.3 °F 17.6 °F 36% 29.83 in 10.0 mi SSW 24.2 mph 27.6 mph N/A   Clear
12:15 PM 42.8 °F 33.5 °F 17.6 °F 36% 29.83 in 10.0 mi SSW 23.0 mph 26.5 mph N/A   Clear
12:35 PM 44.6 °F 36.1 °F 17.6 °F 34% 29.83 in 10.0 mi SSW 21.9 mph 28.8 mph N/A   Clear
12:55 PM 44.6 °F 35.7 °F 17.6 °F 34% 29.82 in 10.0 mi SSW 24.2 mph 29.9 mph N/A   Clear
1:15 PM 44.6 °F 36.4 °F 15.8 °F 31% 29.81 in 10.0 mi SSW 20.7 mph - N/A   Clear
1:35 PM 46.4 °F 37.9 °F 15.8 °F 29% 29.81 in 10.0 mi SSW 25.3 mph 28.8 mph N/A   Clear
1:55 PM 48.2 °F - 15.8 °F 27% 29.80 in 10.0 mi SSW 21.9 mph 31.1 mph N/A   Clear
2:15 PM 48.2 °F - 15.8 °F 27% 29.79 in 10.0 mi SSW 26.5 mph 32.2 mph N/A   Clear
2:35 PM 48.2 °F - 14.0 °F 25% 29.79 in 10.0 mi SSW 26.5 mph 32.2 mph N/A   Clear
2:55 PM 48.2 °F - 15.8 °F 27% 29.80 in 10.0 mi SSW 23.0 mph 32.2 mph N/A   Clear
3:15 PM 48.2 °F - 15.8 °F 27% 29.79 in 10.0 mi SSW 23.0 mph 27.6 mph N/A   Clear
3:35 PM 48.2 °F - 15.8 °F 27% 29.79 in 10.0 mi South 24.2 mph 28.8 mph N/A   Clear
3:55 PM 48.2 °F - 15.8 °F 27% 29.80 in 10.0 mi South 19.6 mph 26.5 mph N/A   Clear
4:15 PM 46.4 °F 39.2 °F 15.8 °F 29% 29.81 in 10.0 mi SSW 18.4 mph 25.3 mph N/A   Clear
4:35 PM 46.4 °F 39.8 °F 15.8 °F 29% 29.82 in 10.0 mi SSW 16.1 mph - N/A   Clear
4:55 PM 44.6 °F 38.1 °F 15.8 °F 31% 29.83 in 10.0 mi SSW 13.8 mph - N/A   Clear
5:15 PM 42.8 °F 36.2 °F 17.6 °F 36% 29.83 in 10.0 mi SSW 12.7 mph - N/A   Clear
5:35 PM 41.0 °F 33.9 °F 17.6 °F 39% 29.83 in 10.0 mi South 12.7 mph - N/A   Clear
6:15 PM 39.2 °F 31.6 °F 17.6 °F 42% 29.84 in 10.0 mi South 12.7 mph - N/A   Clear
6:35 PM 39.2 °F 32.0 °F 15.8 °F 39% 29.85 in 10.0 mi South 11.5 mph - N/A   Clear
6:55 PM 39.2 °F 31.2 °F 15.8 °F 39% 29.85 in 10.0 mi South 13.8 mph - N/A   Clear
7:15 PM 39.2 °F 31.6 °F 15.8 °F 39% 29.86 in 10.0 mi South 12.7 mph - N/A   Clear
7:35 PM 39.2 °F 31.2 °F 15.8 °F 39% 29.86 in 10.0 mi South 13.8 mph - N/A   Clear
7:55 PM 39.2 °F 31.6 °F 15.8 °F 39% 29.86 in 10.0 mi South 12.7 mph - N/A   Clear
8:15 PM 39.2 °F 31.6 °F 15.8 °F 39% 29.86 in 10.0 mi South 12.7 mph - N/A   Clear
8:35 PM 37.4 °F 28.9 °F 17.6 °F 45% 29.87 in 10.0 mi South 13.8 mph - N/A   Clear
8:55 PM 37.4 °F 28.9 °F 15.8 °F 41% 29.87 in 10.0 mi South 13.8 mph - N/A   Clear
9:35 PM 37.4 °F 28.5 °F 15.8 °F 41% 29.86 in 10.0 mi South 15.0 mph 19.6 mph N/A   Clear
9:55 PM 37.4 °F 29.3 °F 15.8 °F 41% 29.86 in 10.0 mi South 12.7 mph - N/A   Clear
10:15 PM 37.4 °F 28.5 °F 15.8 °F 41% 29.87 in 10.0 mi SSW 15.0 mph - N/A   Clear
10:35 PM 37.4 °F 28.9 °F 15.8 °F 41% 29.87 in 10.0 mi SSW 13.8 mph - N/A   Clear
10:55 PM 37.4 °F 28.2 °F 15.8 °F 41% 29.88 in 10.0 mi SSW 16.1 mph 21.9 mph N/A   Clear
11:15 PM 37.4 °F 27.5 °F 15.8 °F 41% 29.87 in 10.0 mi SSW 18.4 mph - N/A   Clear
11:35 PM 37.4 °F 28.2 °F 15.8 °F 41% 29.87 in 10.0 mi SSW 16.1 mph 21.9 mph N/A   Clear
11:55 PM 35.6 °F 26.6 °F 15.8 °F 44% 29.87 in 10.0 mi South 13.8 mph - N/A   Clear